DW5893 Weather Reports


time (UTC)temp
C
wind
direction
speed
KPH
gust
KPH
rain 1hr
cm
rain 24hr
cm
rain mn
cm
humidity
%
barometer
mb
20210723164037 24 355 11.3 0.0 0.00 0.00 0.05 54 999.6
20210723163534 24 336 11.3 0.0 0.00 0.00 0.05 53 999.5
20210723163106 24 317 9.7 0.0 0.00 0.00 0.05 54 999.7
20210723162532 24 338 11.3 0.0 0.00 0.00 0.05 53 999.7
20210723162033 24 307 11.3 0.0 0.00 0.00 0.05 53 999.7
20210723161603 23 355 9.7 0.0 0.00 0.00 0.05 56 999.9
20210723161029 23 306 8.0 0.0 0.00 0.00 0.05 57 999.9
20210723160531 22 327 6.4 0.0 0.00 0.00 0.05 62 999.9
20210723155534 22 349 6.4 0.0 0.00 0.00 0.05 65 999.7
20210723155025 22 333 3.2 0.0 0.00 0.00 0.05 65 999.7
20210723154522 22 257 3.2 0.0 0.00 0.00 0.05 68 999.8
20210723154020 22 300 3.2 0.0 0.00 0.00 0.05 68 999.8
20210723153534 22 241 3.2 0.0 0.00 0.00 0.05 70 999.4
20210723153033 21 205 4.8 0.0 0.00 0.00 0.05 72 999.2
20210723152519 21 108 4.8 0.0 0.00 0.00 0.05 69 999.1
20210723152022 21 161 4.8 0.0 0.00 0.00 0.05 70 999.4
20210723151517 20 92 6.4 0.0 0.00 0.00 0.05 73 999.1
20210723151019 20 138 8.0 0.0 0.00 0.00 0.05 75 999.0
20210723150530 20 102 6.4 0.0 0.00 0.00 0.05 75 999.0
20210723145514 18 18 4.8 0.0 0.00 0.00 0.05 79 999.0
20210723145014 18 55 1.6 0.0 0.00 0.00 0.05 80 998.7
20210723144514 17 79 3.2 0.0 0.00 0.00 0.05 83 998.5
20210723144014 17 38 9.7 0.0 0.00 0.00 0.05 83 998.4
20210723143513 17 24 14.5 0.0 0.00 0.00 0.05 81 998.4
20210723143013 18 46 11.3 0.0 0.00 0.00 0.05 78 997.8
20210723142520 19 58 8.0 0.0 0.00 0.00 0.00 72 1000.6
20210723142012 19 259 9.7 0.0 0.00 0.00 0.00 72 1001.0
20210723141513 20 350 11.3 0.0 0.00 0.00 0.00 71 1000.3
20210723141016 20 344 11.3 0.0 0.00 0.00 0.00 74 1000.4
20210723140510 20 328 9.7 0.0 0.00 0.00 0.00 74 1000.4
20210723135510 20 333 6.4 0.0 0.00 0.00 0.00 75 999.7
20210723135025 20 341 9.7 0.0 0.00 0.00 0.00 75 1000.1
20210723134511 20 315 8.0 0.0 0.00 0.00 0.00 76 1000.0
20210723134007 19 341 3.2 0.0 0.00 0.00 0.00 81 1000.1
20210723133515 18 204 1.6 0.0 0.00 0.00 0.00 82 999.4
20210723133028 18 178 1.6 0.0 0.00 0.00 0.00 82 999.3
20210723132509 18 170 1.6 0.0 0.00 0.00 0.00 83 999.4
20210723132004 18 171 3.2 0.0 0.00 0.00 0.00 83 999.3
20210723131504 18 157 3.2 0.0 0.00 0.00 0.00 83 999.3
20210723131004 17 215 0.0 0.0 0.00 0.00 0.00 82 999.4
20210723130503 17 215 1.6 0.0 0.00 0.00 0.00 82 999.3
20210723125534 17 229 1.6 0.0 0.00 0.00 0.00 84 999.9
20210723125055 16 232 1.6 0.0 0.00 0.00 0.00 84 999.8
20210723124533 16 232 3.2 0.0 0.00 0.00 0.00 85 999.7
20210723124029 16 254 1.6 0.0 0.00 0.00 0.00 86 999.5
20210723123527 15 195 0.0 0.0 0.00 0.00 0.00 86 999.0
20210723123109 15 195 0.0 0.0 0.00 0.00 0.00 87 998.5
20210723122525 15 195 0.0 0.0 0.00 0.00 0.00 88 998.6
20210723122025 15 195 0.0 0.0 0.00 0.00 0.00 88 998.6
20210723121548 14 195 0.0 0.0 0.00 0.00 0.00 88 998.5
20210723121030 14 195 0.0 0.0 0.00 0.00 0.00 88 998.4
20210723120532 14 195 0.0 0.0 0.00 0.00 0.00 88 998.4
20210723115553 13 195 0.0 0.0 0.00 0.00 0.00 88 998.4
20210723115048 13 195 0.0 0.0 0.00 0.00 0.00 89 998.4
20210723114746 13 195 0.0 0.0 0.00 0.00 0.00 89 998.2
20210723114048 13 195 1.6 0.0 0.00 0.00 0.00 88 998.1
20210723113548 13 195 3.2 0.0 0.00 0.00 0.00 88 998.2
20210723113128 13 196 3.2 0.0 0.00 0.00 0.00 88 998.3
20210723112546 13 209 1.6 0.0 0.00 0.00 0.00 87 998.1
20210723112046 13 209 0.0 0.0 0.00 0.00 0.00 87 998.2
20210723111605 13 208 1.6 0.0 0.00 0.00 0.00 86 998.2
20210723111048 14 208 1.6 0.0 0.00 0.00 0.00 85 998.0
20210723110603 14 207 1.6 0.0 0.00 0.00 0.00 86 998.0
20210723110103 14 207 1.6 0.0 0.00 0.00 0.00 85 998.1
20210723105512 14 207 1.6 0.0 0.00 0.00 0.00 86 998.1
20210723105012 14 207 0.0 0.0 0.00 0.00 0.00 86 998.0
20210723104534 14 207 0.0 0.0 0.00 0.00 0.00 86 997.9
20210723104011 15 207 0.0 0.0 0.00 0.00 0.00 85 997.9
20210723103511 15 207 0.0 0.0 0.00 0.00 0.00 84 997.9
20210723103052 15 207 0.0 0.0 0.00 0.00 0.00 84 997.9
20210723102511 15 211 0.0 0.0 0.00 0.00 0.00 86 997.8
20210723102018 15 211 1.6 0.0 0.00 0.00 0.00 86 997.8
20210723101522 15 211 1.6 0.0 0.00 0.00 0.00 84 997.7
20210723101008 15 211 1.6 0.0 0.00 0.00 0.00 84 997.6
20210723100507 15 211 3.2 0.0 0.00 0.00 0.00 83 997.5
20210723095543 16 252 3.2 0.0 0.00 0.00 0.00 82 997.1
20210723095042 16 297 1.6 0.0 0.00 0.00 0.00 82 997.1
20210723094555 16 340 0.0 0.0 0.00 0.00 0.00 82 997.1
20210723094042 16 339 0.0 0.0 0.00 0.00 0.00 82 997.2
20210723093557 16 340 0.0 0.0 0.00 0.00 0.00 82 997.3
20210723093213 16 340 0.0 0.0 0.00 0.00 0.00 82 997.3
20210723092541 16 340 0.0 0.0 0.00 0.00 0.00 83 997.1
20210723092041 16 340 1.6 0.0 0.00 0.00 0.00 83 997.2
20210723091559 16 333 3.2 0.0 0.00 0.00 0.00 83 997.2
20210723091041 16 333 3.2 0.0 0.00 0.00 0.00 82 997.1
20210723090541 16 333 3.2 0.0 0.00 0.00 0.00 81 997.3
20210723090052 16 331 3.2 0.0 0.00 0.00 0.00 81 997.0
20210723085537 16 331 3.2 0.0 0.00 0.00 0.00 81 997.0
20210723085037 16 335 3.2 0.0 0.00 0.00 0.00 79 996.9
20210723084716 16 328 3.2 0.0 0.00 0.00 0.00 78 996.9
20210723084037 17 155 0.0 0.0 0.00 0.00 0.00 77 996.8
20210723083534 17 157 0.0 0.0 0.00 0.00 0.00 76 996.8
20210723083059 17 157 0.0 0.0 0.00 0.00 0.00 76 996.6
20210723082532 17 157 0.0 0.0 0.00 0.00 0.00 75 996.6
20210723082034 17 157 0.0 0.0 0.00 0.00 0.00 74 996.5
20210723081549 17 157 0.0 0.0 0.00 0.00 0.00 74 996.5
20210723081052 18 157 0.0 0.0 0.00 0.00 0.00 74 996.4
20210723080529 18 157 0.0 0.0 0.00 0.00 0.00 73 996.2
20210723080041 18 157 0.0 0.0 0.00 0.00 0.00 73 996.2
20210723075533 18 157 0.0 0.0 0.00 0.00 0.00 72 996.3
20210723075028 18 157 0.0 0.0 0.00 0.00 0.00 72 996.4
20210723074530 18 157 0.0 0.0 0.00 0.00 0.00 70 996.5
20210723074028 20 157 0.0 0.0 0.00 0.00 0.00 68 996.5
20210723073522 20 157 1.6 0.0 0.00 0.00 0.00 67 996.6
20210723073022 20 157 3.2 0.0 0.00 0.00 0.00 66 996.5
20210723072538 21 168 3.2 0.0 0.00 0.00 0.00 65 996.6
20210723072025 21 179 4.8 0.0 0.00 0.00 0.00 64 996.5
20210723071627 21 179 3.2 0.0 0.00 0.00 0.00 64 996.6
20210723071027 21 159 1.6 0.0 0.00 0.00 0.00 64 996.6
20210723070521 21 169 1.6 0.0 0.00 0.00 0.00 64 996.6
20210723070028 21 167 1.6 0.0 0.00 0.00 0.00 64 996.6
20210723065523 21 172 1.6 0.0 0.00 0.00 0.00 64 996.6
20210723065021 21 159 4.8 0.0 0.00 0.00 0.00 63 996.6
20210723064606 21 170 8.0 0.0 0.00 0.00 0.00 63 996.6
20210723064030 21 167 8.0 0.0 0.00 0.00 0.00 64 996.4
20210723063520 21 186 8.0 0.0 0.00 0.00 0.00 64 996.4
20210723063028 21 171 8.0 0.0 0.00 0.00 0.00 64 996.4
20210723062520 21 200 6.4 0.0 0.00 0.00 0.00 64 996.7
20210723062020 21 184 4.8 0.0 0.00 0.00 0.00 64 996.7
20210723061529 21 199 4.8 0.0 0.00 0.00 0.00 64 996.8
20210723061038 21 157 4.8 0.0 0.00 0.00 0.00 64 996.9
20210723060531 21 162 4.8 0.0 0.00 0.00 0.00 64 996.9
20210723060037 21 161 6.4 0.0 0.00 0.00 0.00 63 997.1
20210723055521 21 165 8.0 0.0 0.00 0.00 0.00 63 997.1
20210723055021 21 175 9.7 0.0 0.00 0.00 0.00 63 996.9
20210723054615 21 146 11.3 0.0 0.00 0.00 0.00 64 996.7
20210723054028 21 184 12.9 0.0 0.00 0.00 0.00 63 996.6
20210723053519 21 167 14.5 0.0 0.00 0.00 0.00 64 996.6
20210723053044 21 190 12.9 0.0 0.00 0.00 0.00 64 996.3
20210723052521 21 171 11.3 0.0 0.00 0.00 0.00 65 996.1
20210723052021 20 169 8.0 0.0 0.00 0.00 0.00 71 995.9
20210723051524 20 187 4.8 0.0 0.00 0.00 0.00 72 995.6
20210723051043 21 205 3.2 0.0 0.00 0.00 0.00 70 995.7
20210723050547 21 164 4.8 0.0 0.00 0.00 0.00 70 995.6
20210723050026 21 138 4.8 0.0 0.00 0.00 0.00 71 995.8
20210723045515 21 151 4.8 0.0 0.00 0.00 0.00 71 995.9
20210723045022 21 146 6.4 0.0 0.00 0.00 0.00 71 996.3
20210723044542 21 73 8.0 0.0 0.00 0.00 0.00 68 996.6
20210723044034 22 79 8.0 0.0 0.00 0.00 0.00 63 999.3
20210723043524 22 233 6.4 0.0 0.00 0.00 0.00 60 1000.6
20210723043124 22 225 3.2 0.0 0.00 0.00 0.00 58 1000.2
20210723042514 23 283 3.2 0.0 0.00 0.00 0.00 58 999.8
20210723042040 22 271 3.2 0.0 0.00 0.00 0.00 57 1000.0
20210723041519 22 282 3.2 0.0 0.00 0.00 0.00 58 1000.3
20210723041018 22 311 3.2 0.0 0.00 0.00 0.00 59 1000.4
20210723040513 22 298 3.2 0.0 0.00 0.00 0.00 59 1000.1
20210723040020 22 324 4.8 0.0 0.00 0.00 0.00 60 1000.2
20210723035514 22 305 4.8 0.0 0.00 0.00 0.00 60 1000.2
20210723035013 22 342 6.4 0.0 0.00 0.00 0.00 60 1000.1
20210723034519 22 336 9.7 0.0 0.00 0.00 0.00 59 1000.0
20210723034012 22 355 11.3 0.0 0.00 0.00 0.00 58 1000.0
20210723033546 23 338 11.3 0.0 0.00 0.00 0.00 57 1000.0
20210723033036 23 340 12.9 0.0 0.00 0.00 0.00 56 1000.0
20210723032522 23 333 11.3 0.0 0.00 0.00 0.00 56 999.9
20210723032009 23 342 12.9 0.0 0.00 0.00 0.00 56 999.8
20210723031511 23 305 17.7 0.0 0.00 0.00 0.00 56 999.7
20210723031018 23 339 20.9 0.0 0.00 0.00 0.00 55 999.7
20210723030511 24 304 20.9 0.0 0.00 0.00 0.00 54 999.6
20210723030026 25 306 17.7 0.0 0.00 0.00 0.00 52 999.7
20210723025518 25 315 16.1 0.0 0.00 0.00 0.00 52 999.7
20210723025027 25 285 14.5 0.0 0.00 0.00 0.00 51 999.7
20210723024605 25 336 16.1 0.0 0.00 0.00 0.00 51 999.8
20210723024018 25 274 16.1 0.0 0.00 0.00 0.00 52 999.8
20210723023517 25 284 12.9 0.0 0.00 0.00 0.00 62 999.6
20210723023049 25 192 12.9 0.0 0.00 0.00 0.00 61 997.3
20210723022515 25 176 11.3 0.0 0.00 0.00 0.00 61 996.7
20210723022015 25 225 11.3 0.0 0.00 0.00 0.00 61 996.6
20210723021521 25 194 11.3 0.0 0.00 0.00 0.00 60 996.5
20210723021015 25 179 11.3 0.0 0.00 0.00 0.00 60 996.3
20210723020516 25 192 12.9 0.0 0.00 0.00 0.00 60 996.4
20210723020043 25 178 12.9 0.0 0.00 0.00 0.00 60 996.3
20210723015514 25 152 12.9 0.0 0.00 0.00 0.00 60 996.3
20210723015020 25 205 14.5 0.0 0.00 0.00 0.00 60 996.3
20210723014605 25 204 16.1 0.0 0.00 0.00 0.00 59 996.2
20210723014018 25 210 17.7 0.0 0.00 0.00 0.00 59 996.1
20210723013517 26 155 19.3 0.0 0.00 0.00 0.00 58 995.9
20210723013046 26 167 17.7 0.0 0.00 0.00 0.00 57 995.8
20210723012513 26 159 17.7 0.0 0.00 0.00 0.00 56 995.7
20210723012034 27 175 19.3 0.0 0.00 0.00 0.00 55 995.6
20210723011518 27 175 20.9 0.0 0.00 0.00 0.00 52 995.6
20210723011017 28 178 19.3 0.0 0.00 0.00 0.00 51 995.6
20210723010540 28 161 17.7 0.0 0.00 0.00 0.00 49 995.6
20210723005558 29 229 19.3 0.0 0.00 0.00 0.00 46 995.4
20210723005122 30 174 17.7 0.0 0.00 0.00 0.00 44 995.2
20210723004558 30 186 17.7 0.0 0.00 0.00 0.00 43 995.1
20210723004040 30 231 19.3 0.0 0.00 0.00 0.00 41 995.1
20210723003540 31 153 19.3 0.0 0.00 0.00 0.00 39 995.2
20210723003238 31 194 17.7 0.0 0.00 0.00 0.00 37 995.3
20210723002540 32 177 17.7 0.0 0.00 0.00 0.00 35 995.2
20210723002039 32 164 17.7 0.0 0.00 0.00 0.00 34 995.0
20210723001636 32 161 17.7 0.0 0.00 0.00 0.00 34 995.1
20210723001059 31 198 17.7 0.0 0.00 0.00 0.00 35 995.0
20210723000547 31 169 16.1 0.0 0.00 0.00 0.00 34 995.2
20210723000126 32 178 14.5 0.0 0.00 0.00 0.00 35 994.9
20210722235504 32 184 16.1 0.0 0.00 0.00 0.00 35 994.9
20210722235008 33 207 19.3 0.0 0.00 0.00 0.00 35 995.0
20210722234504 33 164 19.3 0.0 0.00 0.00 0.00 34 995.0
20210722234003 33 171 17.7 0.0 0.00 0.00 0.00 33 995.0
20210722233504 32 154 16.1 0.0 0.00 0.00 0.00 33 994.9
20210722233010 33 182 16.1 0.0 0.00 0.00 0.00 32 994.9
20210722232515 33 172 16.1 0.0 0.00 0.00 0.00 32 994.9
20210722232004 34 182 11.3 0.0 0.00 0.00 0.00 30 994.9
20210722231508 35 157 6.4 0.0 0.00 0.00 0.00 27 994.8
20210722231004 35 195 6.4 0.0 0.00 0.00 0.00 27 994.7
20210722230510 35 186 6.4 0.0 0.00 0.00 0.00 26 994.7
20210722230005 35 190 8.0 0.0 0.00 0.00 0.00 26 994.5
20210722225506 35 164 8.0 0.0 0.00 0.00 0.00 26 994.5
20210722225005 35 184 8.0 0.0 0.00 0.00 0.00 26 994.4
20210722224506 35 173 6.4 0.0 0.00 0.00 0.00 27 994.4
20210722224004 35 161 8.0 0.0 0.00 0.00 0.00 27 994.4
20210722223503 35 182 6.4 0.0 0.00 0.00 0.00 27 994.5
20210722223036 35 196 6.4 0.0 0.00 0.00 0.00 27 994.5
20210722222504 35 198 6.4 0.0 0.00 0.00 0.00 27 994.7
20210722222003 35 209 6.4 0.0 0.00 0.00 0.00 26 994.7
20210722221506 35 191 6.4 0.0 0.00 0.00 0.00 26 994.6
20210722221002 35 227 8.0 0.0 0.00 0.00 0.00 25 994.7
20210722220503 35 214 9.7 0.0 0.00 0.00 0.00 24 994.6
20210722220013 36 225 11.3 0.0 0.00 0.00 0.00 23 994.5
20210722215133 36 220 11.3 0.0 0.00 0.00 0.00 25 994.6
20210722214649 36 181 12.9 0.0 0.00 0.00 0.00 24 994.7
20210722214055 35 212 12.9 0.0 0.00 0.00 0.00 24 994.7
20210722213554 36 257 12.9 0.0 0.00 0.00 0.00 24 994.7
20210722213243 35 232 12.9 0.0 0.00 0.00 0.00 23 994.8
20210722212606 35 223 12.9 0.0 0.00 0.00 0.00 23 994.8
20210722212526 35 215 12.9 0.0 0.00 0.00 0.00 23 994.9
20210722212052 35 238 12.9 0.0 0.00 0.00 0.00 24 994.9
20210722211742 35 230 12.9 0.0 0.00 0.00 0.00 24 995.0
20210722211051 35 207 12.9 0.0 0.00 0.00 0.00 25 995.1
20210722210552 35 215 12.9 0.0 0.00 0.00 0.00 25 995.1
20210722205113 34 181 12.9 0.0 0.00 0.00 0.00 26 995.0
20210722204107 35 227 16.1 0.0 0.00 0.00 0.00 25 995.1
20210722203556 34 231 19.3 0.0 0.00 0.00 0.00 25 995.2
20210722203503 34 179 19.3 0.0 0.00 0.00 0.00 25 995.2
20210722203131 34 196 17.7 0.0 0.00 0.00 0.00 25 995.3
20210722202600 35 230 14.5 0.0 0.00 0.00 0.00 31 995.4
20210722202105 35 239 12.9 0.0 0.00 0.00 0.00 33 995.5
20210722201622 35 213 9.7 0.0 0.00 0.00 0.00 34 995.6
20210722201052 35 293 9.7 0.0 0.00 0.00 0.00 36 995.7
20210722200552 35 249 9.7 0.0 0.00 0.00 0.00 36 995.6
20210722200131 35 269 9.7 0.0 0.00 0.00 0.00 37 995.7
20210722195100 35 329 9.7 0.0 0.00 0.00 0.00 37 995.5
20210722194653 35 236 9.7 0.0 0.00 0.00 0.00 35 995.4
20210722194501 35 241 9.7 0.0 0.00 0.00 0.00 35 995.4
20210722194059 34 243 9.7 0.0 0.00 0.00 0.00 36 995.4
20210722193604 34 214 8.0 0.0 0.00 0.00 0.00 37 995.5
20210722193143 34 219 8.0 0.0 0.00 0.00 0.00 37 995.5
20210722192557 35 243 9.7 0.0 0.00 0.00 0.00 36 995.5
20210722192058 35 265 9.7 0.0 0.00 0.00 0.00 36 995.6
20210722191725 35 254 6.4 0.0 0.00 0.00 0.00 35 995.7
20210722191100 36 207 4.8 0.0 0.00 0.00 0.00 36 995.7
20210722190554 35 240 3.2 0.0 0.00 0.00 0.00 37 995.7
20210722190135 35 329 3.2 0.0 0.00 0.00 0.00 38 995.8
20210722185034 35 312 6.4 0.0 0.00 0.00 0.00 37 995.8
20210722184559 35 248 4.8 0.0 0.00 0.00 0.00 36 995.8
20210722184030 35 309 4.8 0.0 0.00 0.00 0.00 38 995.9
20210722183537 35 221 6.4 0.0 0.00 0.00 0.00 37 996.0
20210722183052 35 239 6.4 0.0 0.00 0.00 0.00 37 996.1
20210722182527 34 201 4.8 0.0 0.00 0.00 0.00 38 996.1
20210722182030 34 243 8.0 0.0 0.00 0.00 0.00 38 996.2
20210722181616 34 258 9.7 0.0 0.00 0.00 0.00 38 996.2
20210722181026 35 229 8.0 0.0 0.00 0.00 0.00 37 996.4
20210722180526 34 205 8.0 0.0 0.00 0.00 0.00 38 996.3
20210722180028 35 276 8.0 0.0 0.00 0.00 0.00 37 996.3
20210722175505 35 265 8.0 0.0 0.00 0.00 0.00 37 996.3
20210722175005 35 240 8.0 0.0 0.00 0.00 0.00 39 996.4
20210722174502 34 188 8.0 0.0 0.00 0.00 0.00 38 996.4
20210722174003 34 185 9.7 0.0 0.00 0.00 0.00 39 996.5
20210722173502 33 198 9.7 0.0 0.00 0.00 0.00 39 996.6
20210722173143 33 135 6.4 0.0 0.00 0.00 0.00 40 996.6
20210722172558 33 229 6.4 0.0 0.00 0.00 0.00 42 996.6
20210722172056 33 192 8.0 0.0 0.00 0.00 0.00 44 996.8
20210722171706 33 198 9.7 0.0 0.00 0.00 0.00 44 996.8
20210722171106 32 163 8.0 0.0 0.00 0.00 0.00 45 996.8
20210722170558 32 155 8.0 0.0 0.00 0.00 0.00 46 996.9
20210722170135 32 163 6.4 0.0 0.00 0.00 0.00 47 997.2
20210722165058 32 232 8.0 0.0 0.00 0.00 0.00 46 997.2
20210722164715 32 149 9.7 0.0 0.00 0.00 0.00 47 997.3